• In Romania
  • List of Countries
  • For 7 days
  • Water Temperature
  • Satellite Maps
  • Weather Map
  • Weather Widgets
  • user-avatar
    Login

    Hourly Weather Makarska

    Today, 19 September, Wednesday

    Time Temperature Precipitation Wind Pressure Humidity
    00:00 +24°C° 0 mm 1 mps 763 mmHg 74%
    01:00 +24°C° 0 mm 1 mps 763 mmHg 73%
    02:00 +23°C° 0 mm 1 mps 763 mmHg 72%
    03:00 +23°C° 0 mm 1 mps 763 mmHg 71%
    04:00 +23°C° 0 mm 1 mps 763 mmHg 70%
    05:00 +24°C° 0 mm 1 mps 763 mmHg 69%
    06:00 +24°C° 0 mm 1 mps 763 mmHg 67%
    07:00 +25°C° 0 mm 1 mps 763 mmHg 65%
    08:00 +26°C° 0 mm 1 mps 763 mmHg 60%
    09:00 +28°C° 0 mm 1 mps 763 mmHg 54%
    10:00 +30°C° 0 mm 1 mps 763 mmHg 48%
    11:00 +30°C° 0 mm 1 mps 763 mmHg 48%
    12:00 +31°C° 0 mm 1 mps 762 mmHg 47%
    13:00 +31°C° 0 mm 2 mps 762 mmHg 47%
    14:00 +30°C° 0 mm 2 mps 762 mmHg 50%
    15:00 +30°C° 0 mm 2 mps 762 mmHg 53%
    16:00 +30°C° 0 mm 2 mps 762 mmHg 56%
    17:00 +28°C° 0.1 mm 2 mps 762 mmHg 61%
    18:00 +27°C° 0.1 mm 2 mps 762 mmHg 65%
    19:00 +26°C° 0.1 mm 2 mps 762 mmHg 70%
    20:00 +25°C° 0 mm 2 mps 763 mmHg 69%
    21:00 +25°C° 0 mm 2 mps 763 mmHg 69%
    22:00 +25°C° 0 mm 2 mps 763 mmHg 69%
    23:00 +25°C° 0 mm 2 mps 763 mmHg 68%

    Tomorrow, 20 September, Thursday

    Time Temperature Precipitation Wind Pressure Humidity
    00:00 +24°C° 0 mm 2 mps 763 mmHg 67%
    01:00 +24°C° 0 mm 2 mps 763 mmHg 67%
    02:00 +24°C° 0 mm 2 mps 762 mmHg 66%
    03:00 +24°C° 0 mm 2 mps 762 mmHg 65%
    04:00 +24°C° 0 mm 2 mps 762 mmHg 64%
    05:00 +25°C° 0 mm 2 mps 762 mmHg 64%
    06:00 +25°C° 0 mm 1 mps 762 mmHg 64%
    07:00 +25°C° 0 mm 1 mps 762 mmHg 63%
    08:00 +26°C° 0 mm 1 mps 763 mmHg 59%
    09:00 +28°C° 0 mm 1 mps 763 mmHg 56%
    10:00 +29°C° 0 mm 1 mps 763 mmHg 52%
    11:00 +29°C° 0.1 mm 2 mps 763 mmHg 52%
    12:00 +29°C° 0.1 mm 2 mps 762 mmHg 53%
    13:00 +30°C° 0.1 mm 3 mps 762 mmHg 53%
    14:00 +29°C° 0.1 mm 3 mps 762 mmHg 56%
    15:00 +29°C° 0.1 mm 3 mps 762 mmHg 59%
    16:00 +28°C° 0.1 mm 3 mps 762 mmHg 62%
    17:00 +27°C° 0.1 mm 3 mps 762 mmHg 66%
    18:00 +26°C° 0.1 mm 3 mps 762 mmHg 69%
    19:00 +25°C° 0.1 mm 2 mps 762 mmHg 72%
    20:00 +25°C° 0 mm 2 mps 762 mmHg 72%
    21:00 +25°C° 0 mm 2 mps 762 mmHg 72%
    22:00 +25°C° 0 mm 2 mps 762 mmHg 72%
    23:00 +25°C° 0 mm 2 mps 762 mmHg 72%

    Day after tomorrow, 21 September, Friday

    Time Temperature Precipitation Wind Pressure Humidity
    00:00 +24°C° 0 mm 2 mps 762 mmHg 71%
    01:00 +24°C° 0 mm 2 mps 761 mmHg 71%
    02:00 +24°C° 0 mm 2 mps 761 mmHg 70%
    03:00 +23°C° 0 mm 2 mps 761 mmHg 70%
    04:00 +23°C° 0 mm 2 mps 761 mmHg 69%
    05:00 +24°C° 0 mm 2 mps 761 mmHg 68%
    06:00 +24°C° 0 mm 2 mps 761 mmHg 66%
    07:00 +25°C° 0 mm 1 mps 762 mmHg 64%
    08:00 +26°C° 0 mm 2 mps 762 mmHg 60%
    09:00 +28°C° 0 mm 2 mps 762 mmHg 55%
    10:00 +29°C° 0 mm 2 mps 762 mmHg 51%
    11:00 +30°C° 0 mm 2 mps 761 mmHg 51%
    12:00 +30°C° 0 mm 2 mps 761 mmHg 52%
    13:00 +30°C° 0 mm 2 mps 761 mmHg 52%
    14:00 +30°C° 0.1 mm 2 mps 761 mmHg 55%
    15:00 +30°C° 0.1 mm 2 mps 761 mmHg 57%
    16:00 +29°C° 0.1 mm 2 mps 760 mmHg 59%
    17:00 +28°C° 0.3 mm 1 mps 761 mmHg 65%
    18:00 +26°C° 0.3 mm 1 mps 761 mmHg 71%
    19:00 +23°C° 0.3 mm 0 mps 761 mmHg 76%
    20:00 +23°C° 0 mm 0 mps 761 mmHg 77%
    21:00 +24°C° 0 mm 1 mps 762 mmHg 78%
    22:00 +24°C° 0 mm 1 mps 762 mmHg 80%
    23:00 +24°C° 0 mm 1 mps 762 mmHg 80%

    22 September, Saturday

    Time Temperature Precipitation Wind Pressure Humidity
    00:00 +24°C° 0 mm 1 mps 762 mmHg 81%
    01:00 +23°C° 0 mm 1 mps 762 mmHg 81%
    02:00 +23°C° 0 mm 1 mps 762 mmHg 82%
    03:00 +23°C° 0 mm 1 mps 762 mmHg 82%
    04:00 +23°C° 0 mm 1 mps 762 mmHg 82%
    05:00 +23°C° 0 mm 1 mps 762 mmHg 80%
    06:00 +24°C° 0 mm 2 mps 762 mmHg 78%
    07:00 +24°C° 0 mm 2 mps 762 mmHg 76%
    08:00 +26°C° 0 mm 2 mps 762 mmHg 71%
    09:00 +27°C° 0 mm 2 mps 762 mmHg 66%
    10:00 +28°C° 0 mm 2 mps 762 mmHg 60%
    11:00 +29°C° 0 mm 2 mps 762 mmHg 59%
    12:00 +29°C° 0 mm 2 mps 762 mmHg 58%
    13:00 +30°C° 0 mm 3 mps 762 mmHg 57%
    14:00 +30°C° 0.1 mm 2 mps 762 mmHg 60%
    15:00 +29°C° 0.1 mm 2 mps 762 mmHg 63%
    16:00 +29°C° 0.1 mm 2 mps 761 mmHg 65%
    17:00 +27°C° 0.1 mm 2 mps 762 mmHg 70%
    18:00 +26°C° 0.1 mm 1 mps 763 mmHg 75%
    19:00 +25°C° 0.1 mm 1 mps 763 mmHg 80%
    20:00 +24°C° 0 mm 1 mps 763 mmHg 80%
    21:00 +24°C° 0 mm 2 mps 764 mmHg 80%
    22:00 +23°C° 0 mm 2 mps 764 mmHg 79%
    23:00 +23°C° 0 mm 2 mps 764 mmHg 78%

    23 September, Sunday

    Time Temperature Precipitation Wind Pressure Humidity
    00:00 +21°C° 0 mm 3 mps 764 mmHg 76%
    01:00 +20°C° 0 mm 3 mps 765 mmHg 75%
    02:00 +20°C° 0 mm 3 mps 764 mmHg 73%
    03:00 +20°C° 0 mm 3 mps 764 mmHg 71%
    04:00 +19°C° 0 mm 4 mps 764 mmHg 69%
    05:00 +20°C° 0 mm 4 mps 764 mmHg 68%
    06:00 +20°C° 0 mm 4 mps 764 mmHg 67%
    07:00 +20°C° 0 mm 4 mps 765 mmHg 66%
    08:00 +22°C° 0 mm 3 mps 765 mmHg 62%
    09:00 +25°C° 0 mm 2 mps 765 mmHg 58%
    10:00 +27°C° 0 mm 2 mps 765 mmHg 54%
    11:00 +28°C° 0 mm 2 mps 764 mmHg 53%
    12:00 +29°C° 0 mm 2 mps 764 mmHg 53%
    13:00 +30°C° 0 mm 2 mps 763 mmHg 53%
    14:00 +29°C° 0 mm 2 mps 763 mmHg 55%
    15:00 +29°C° 0 mm 2 mps 762 mmHg 57%
    16:00 +29°C° 0 mm 2 mps 762 mmHg 60%
    17:00 +27°C° 0 mm 2 mps 762 mmHg 66%
    18:00 +26°C° 0 mm 1 mps 762 mmHg 71%
    19:00 +24°C° 0 mm 1 mps 762 mmHg 77%
    20:00 +24°C° 0 mm 1 mps 762 mmHg 78%
    21:00 +24°C° 0 mm 1 mps 762 mmHg 79%
    22:00 +24°C° 0 mm 2 mps 761 mmHg 79%
    23:00 +24°C° 0 mm 2 mps 761 mmHg 80%

    24 September, Monday

    Time Temperature Precipitation Wind Pressure Humidity
    00:00 +24°C° 0 mm 3 mps 760 mmHg 80%
    01:00 +24°C° 0 mm 3 mps 760 mmHg 81%
    02:00 +23°C° 0 mm 4 mps 759 mmHg 81%
    03:00 +23°C° 0 mm 5 mps 758 mmHg 81%
    04:00 +23°C° 0 mm 5 mps 758 mmHg 81%
    05:00 +23°C° 0 mm 5 mps 757 mmHg 82%
    06:00 +23°C° 0 mm 6 mps 757 mmHg 82%
    07:00 +24°C° 0 mm 6 mps 757 mmHg 83%
    08:00 +26°C° 0 mm 6 mps 757 mmHg 80%
    09:00 +26°C° 0 mm 5 mps 757 mmHg 77%
    10:00 +27°C° 0 mm 5 mps 757 mmHg 75%
    11:00 +27°C° 0.1 mm 4 mps 758 mmHg 75%
    12:00 +27°C° 0.1 mm 3 mps 758 mmHg 74%
    13:00 +27°C° 0.1 mm 3 mps 758 mmHg 74%
    14:00 +27°C° 0.2 mm 2 mps 759 mmHg 73%
    15:00 +27°C° 0.2 mm 2 mps 759 mmHg 73%
    16:00 +27°C° 0.2 mm 2 mps 759 mmHg 72%
    17:00 +26°C° 0.2 mm 3 mps 760 mmHg 72%
    18:00 +23°C° 0.2 mm 4 mps 760 mmHg 71%
    19:00 +22°C° 0.2 mm 5 mps 761 mmHg 71%
    20:00 +21°C° 0 mm 6 mps 762 mmHg 67%
    21:00 +20°C° 0 mm 8 mps 763 mmHg 63%
    22:00 +18°C° 0 mm 9 mps 763 mmHg 59%
    23:00 +18°C° 0 mm 10 mps 764 mmHg 57%
    Show more